TimeEST,TemperatureF,Dew PointF,Humidity,Sea Level PressureIn,VisibilityMPH,Wind Direction,Wind SpeedMPH,Gust SpeedMPH,PrecipitationIn,Events,Conditions,WindDirDegrees,DateUTC
12:15 AM,50.0,41.2,72,30.26,10.0,South,12.7,-,N/A,,Overcast,190,2013-11-05 05:15:00
12:35 AM,50.0,41.4,72,30.26,10.0,South,11.5,-,N/A,,Overcast,190,2013-11-05 05:35:00
12:55 AM,50.2,41.5,72,30.26,10.0,South,6.9,-,N/A,,Overcast,190,2013-11-05 05:55:00
1:14 AM,50.0,41.5,73,30.27,10.0,South,6.9,-,N/A,,Overcast,190,2013-11-05 06:14:00
1:35 AM,50.0,41.9,74,30.27,10.0,South,8.1,-,N/A,,Overcast,190,2013-11-05 06:35:00
1:55 AM,50.0,41.9,74,30.26,10.0,South,6.9,-,N/A,,Overcast,190,2013-11-05 06:55:00
2:14 AM,50.0,42.1,74,30.26,10.0,South,6.9,-,N/A,,Overcast,190,2013-11-05 07:14:00
2:35 AM,50.0,42.1,74,30.27,10.0,South,5.8,-,N/A,,Overcast,190,2013-11-05 07:35:00
2:55 AM,49.6,42.3,76,30.27,10.0,South,5.8,-,N/A,,Overcast,180,2013-11-05 07:55:00
3:14 AM,49.5,42.4,77,30.27,10.0,South,5.8,-,N/A,,Overcast,190,2013-11-05 08:14:00
3:35 AM,49.6,42.8,77,30.27,10.0,South,5.8,-,N/A,,Overcast,190,2013-11-05 08:35:00
3:55 AM,50.0,42.8,76,30.27,10.0,SSW,6.9,-,N/A,,Overcast,200,2013-11-05 08:55:00
4:14 AM,50.9,42.8,74,30.27,10.0,SSW,6.9,-,N/A,,Overcast,200,2013-11-05 09:14:00
4:35 AM,51.3,42.6,72,30.28,10.0,SSW,8.1,-,N/A,,Overcast,210,2013-11-05 09:35:00
4:55 AM,51.1,42.8,73,30.28,10.0,SSW,8.1,-,N/A,,Overcast,210,2013-11-05 09:55:00
5:15 AM,51.1,42.8,73,30.29,10.0,SSW,9.2,-,N/A,,Overcast,210,2013-11-05 10:15:00
5:35 AM,51.1,42.8,73,30.30,10.0,SSW,8.1,-,N/A,,Overcast,210,2013-11-05 10:35:00
5:55 AM,50.9,42.8,74,30.30,10.0,SSW,8.1,-,N/A,,Overcast,200,2013-11-05 10:55:00
6:15 AM,50.9,42.8,74,30.30,10.0,SSW,5.8,-,N/A,,Overcast,200,2013-11-05 11:15:00
6:35 AM,50.9,42.8,74,30.30,10.0,South,3.5,-,N/A,,Overcast,190,2013-11-05 11:35:00
6:54 AM,50.2,43.3,77,30.31,10.0,South,4.6,-,N/A,,Overcast,190,2013-11-05 11:54:00
7:15 AM,50.0,43.3,78,30.31,10.0,South,5.8,-,N/A,,Overcast,180,2013-11-05 12:15:00
7:35 AM,50.2,43.2,77,30.30,10.0,South,4.6,-,N/A,,Overcast,170,2013-11-05 12:35:00
7:54 AM,50.0,43.2,77,30.30,10.0,South,5.8,-,N/A,,Overcast,180,2013-11-05 12:54:00
8:15 AM,50.0,43.3,78,30.31,10.0,South,4.6,-,N/A,,Overcast,170,2013-11-05 13:15:00
8:35 AM,50.4,43.2,76,30.32,10.0,South,4.6,-,N/A,,Overcast,170,2013-11-05 13:35:00
8:54 AM,50.4,43.2,76,30.32,10.0,South,4.6,-,N/A,,Overcast,180,2013-11-05 13:54:00
9:15 AM,50.5,43.7,77,30.32,10.0,South,5.8,-,N/A,,Overcast,180,2013-11-05 14:15:00
9:35 AM,51.3,43.7,75,30.32,10.0,South,6.9,-,N/A,,Overcast,180,2013-11-05 14:35:00
9:55 AM,51.3,43.7,75,30.33,10.0,South,9.2,-,N/A,,Overcast,190,2013-11-05 14:55:00
10:15 AM,51.3,44.1,76,30.33,10.0,South,8.1,-,N/A,,Overcast,190,2013-11-05 15:15:00
10:35 AM,51.6,44.2,76,30.33,10.0,South,6.9,-,N/A,,Overcast,180,2013-11-05 15:35:00
10:55 AM,52.0,44.1,74,30.32,10.0,South,5.8,-,N/A,,Overcast,180,2013-11-05 15:55:00
11:15 AM,52.7,44.6,74,30.32,10.0,South,9.2,-,N/A,,Overcast,190,2013-11-05 16:15:00
11:35 AM,52.7,44.8,74,30.32,10.0,South,6.9,-,N/A,,Overcast,190,2013-11-05 16:35:00
11:55 AM,52.7,45.0,75,30.32,10.0,SSW,8.1,-,N/A,,Overcast,200,2013-11-05 16:55:00
12:15 PM,52.7,45.1,75,30.31,10.0,South,8.1,-,N/A,,Overcast,180,2013-11-05 17:15:00
12:35 PM,52.7,45.1,75,30.30,10.0,South,9.2,-,N/A,,Overcast,180,2013-11-05 17:35:00
12:55 PM,52.7,45.5,76,30.30,10.0,South,10.4,-,N/A,,Overcast,190,2013-11-05 17:55:00
1:14 PM,52.9,45.9,77,30.29,10.0,South,9.2,-,N/A,,Overcast,190,2013-11-05 18:14:00
1:35 PM,52.9,46.4,79,30.30,10.0,South,8.1,-,N/A,,Overcast,190,2013-11-05 18:35:00
1:55 PM,53.2,46.8,79,30.28,10.0,South,5.8,-,N/A,,Overcast,190,2013-11-05 18:55:00
2:14 PM,53.8,47.3,79,30.28,10.0,South,6.9,-,N/A,,Overcast,180,2013-11-05 19:14:00
2:35 PM,54.0,48.2,81,30.27,10.0,South,6.9,-,N/A,,Overcast,180,2013-11-05 19:35:00
2:55 PM,54.5,48.4,80,30.27,10.0,South,8.1,-,N/A,,Overcast,190,2013-11-05 19:55:00
3:14 PM,54.7,48.4,79,30.27,10.0,South,8.1,-,N/A,,Overcast,180,2013-11-05 20:14:00
3:35 PM,54.7,48.0,78,30.26,10.0,South,6.9,-,N/A,,Mostly Cloudy,170,2013-11-05 20:35:00
3:54 PM,54.5,47.7,78,30.25,10.0,SE,3.5,-,N/A,,Scattered Clouds,130,2013-11-05 20:54:00
4:15 PM,54.5,47.5,77,30.25,10.0,SSE,5.8,-,N/A,,Scattered Clouds,160,2013-11-05 21:15:00
4:35 PM,54.5,47.5,77,30.24,10.0,SSE,4.6,-,N/A,,Scattered Clouds,160,2013-11-05 21:35:00
4:54 PM,54.1,47.3,78,30.24,10.0,SE,4.6,-,N/A,,Mostly Cloudy,140,2013-11-05 21:54:00
5:15 PM,54.0,47.1,78,30.24,10.0,SSE,5.8,-,N/A,,Scattered Clouds,160,2013-11-05 22:15:00
5:35 PM,53.8,46.8,77,30.22,10.0,SE,5.8,-,N/A,,Mostly Cloudy,140,2013-11-05 22:35:00
5:55 PM,53.8,46.8,77,30.22,10.0,SSE,5.8,-,N/A,,Mostly Cloudy,150,2013-11-05 22:55:00
6:15 PM,53.6,46.6,77,30.22,10.0,SSE,6.9,-,N/A,,Overcast,150,2013-11-05 23:15:00
6:35 PM,54.0,46.4,76,30.22,7.0,SSE,6.9,-,N/A,,Overcast,160,2013-11-05 23:35:00
6:55 PM,53.8,46.4,76,30.22,10.0,SSE,8.1,-,N/A,,Overcast,160,2013-11-05 23:55:00
7:15 PM,53.8,46.0,75,30.21,10.0,SSE,6.9,-,N/A,,Overcast,150,2013-11-06 00:15:00
7:34 PM,53.6,45.9,75,30.20,10.0,SSE,6.9,-,N/A,,Mostly Cloudy,160,2013-11-06 00:34:00
7:55 PM,53.8,45.7,74,30.20,10.0,SSE,8.1,-,N/A,,Mostly Cloudy,160,2013-11-06 00:55:00
8:15 PM,53.8,45.5,74,30.19,10.0,SSE,9.2,-,N/A,,Overcast,160,2013-11-06 01:15:00
8:34 PM,53.6,45.1,73,30.18,10.0,South,9.2,-,N/A,,Overcast,170,2013-11-06 01:34:00
8:55 PM,53.6,44.8,72,30.18,10.0,South,9.2,-,N/A,,Overcast,170,2013-11-06 01:55:00
9:15 PM,53.6,44.4,71,30.17,10.0,SSE,8.1,-,N/A,,Overcast,160,2013-11-06 02:15:00
9:34 PM,53.6,44.1,70,30.16,10.0,South,8.1,-,N/A,,Mostly Cloudy,170,2013-11-06 02:34:00
9:55 PM,53.6,43.7,69,30.16,10.0,South,9.2,16.1,N/A,,Scattered Clouds,170,2013-11-06 02:55:00
10:14 PM,53.6,43.7,69,30.15,10.0,South,9.2,-,N/A,,Clear,170,2013-11-06 03:14:00
10:35 PM,53.8,43.7,69,30.14,10.0,South,9.2,-,N/A,,Scattered Clouds,170,2013-11-06 03:35:00
10:55 PM,54.1,43.5,67,30.13,10.0,South,11.5,-,N/A,,Scattered Clouds,170,2013-11-06 03:55:00
11:14 PM,54.5,43.3,66,30.12,10.0,South,10.4,-,N/A,,Scattered Clouds,170,2013-11-06 04:14:00
11:35 PM,55.2,43.0,63,30.11,10.0,South,10.4,-,N/A,,Mostly Cloudy,170,2013-11-06 04:35:00
11:55 PM,55.6,42.8,62,30.10,10.0,South,12.7,-,N/A,,Overcast,170,2013-11-06 04:55:00